User: anonymous   Login
Location: Unspecified
(0.0000°N, 0.0000°E)
Time: 08:17:44
(UTC+00:00)
Language:

APRIZESAT 10 - Orbit

View from above orbital plane
View from above orbital plane
View from above satellite
View from above satellite

Ground track
Ground track

The orbit data is extracted from the following two-line orbital elements,

1 40019U 14033K   23088.85249661  .00001472  00000-0  25278-3 0  9998
2 40019  97.8026 240.0056 0084404  66.1674 294.8351 14.67773548469659
Epoch (UTC): 29 March 2023 20:27:35
Eccentricity: 0.0084404
inclination: 97.8026°
perigee height: 609 km
apogee height: 727 km
right ascension of ascending node: 240.0056°
argument of perigee: 66.1674°
revolutions per day: 14.67773548
mean anomaly at epoch: 294.8351°
orbit number at epoch: 46965

The dashed part of the orbit path shows where the satellite is in the earth's shadow,  

DLR